Tracking 30995 objects as of 5-Jul-2025
HD Live streaming from Space Station
objects crossing your sky now

ONEWEB-0672

Track ONEWEB-0672 now!
10-day predictions
ONEWEB-0672 is classified as:


NORAD ID: 55831
Int'l Code: 2023-029AM
Perigee: 1,187.7 km
Apogee: 1,190.1 km
Inclination: 87.9 °
Period: 109.0 minutes
Semi major axis: 7559 km
RCS: Unknown
Launch date: March 9, 2023
Source: United Kingdom (UK)
Launch site: AIR FORCE EASTERN TEST RANGE (AFETR)
Your satellite tracking list
COSMOS 375 DEB
Track 1 satellite(s)




NASA's NSSDC Master Catalog

Two Line Element Set (TLE):
1 55831U 23029AM  25185.90024447  .00000003  00000-0 -24747-4 0  9991
2 55831  87.9273 343.6134 0001603  87.9942 272.1374 13.20771700115307
Source of the keplerian elements: AFSPC